Year,Month,Day,Hour,Minute,Value (Times are PST for temperature in C)
2010,06,29,00,00,13.30
2010,06,29,00,01,13.30
2010,06,29,00,02,13.30
2010,06,29,00,03,13.30
2010,06,29,00,19,13.30
2010,06,29,00,20,13.30
2010,06,29,00,21,13.30
2010,06,29,00,22,13.30
2010,06,29,00,23,13.30
2010,06,29,00,24,13.30
2010,06,29,00,25,13.30
2010,06,29,00,26,13.20
2010,06,29,00,27,13.20
2010,06,29,00,28,13.20
2010,06,29,00,29,13.20
2010,06,29,00,30,13.20
2010,06,29,00,31,13.20
2010,06,29,00,32,13.10
2010,06,29,00,33,13.10
2010,06,29,00,34,13.10
2010,06,29,00,35,13.10
2010,06,29,00,36,13.10
2010,06,29,00,37,13.10
2010,06,29,00,38,13.10
2010,06,29,00,39,13.00
2010,06,29,00,40,13.00
2010,06,29,00,41,13.00
2010,06,29,00,42,13.00
2010,06,29,00,43,13.00
2010,06,29,00,44,12.90
2010,06,29,00,45,12.90
2010,06,29,00,46,12.90
2010,06,29,00,47,12.90
2010,06,29,00,48,12.90
2010,06,29,00,49,12.90
2010,06,29,00,50,12.90
2010,06,29,00,51,12.90
2010,06,29,00,52,12.90
2010,06,29,00,53,12.90
2010,06,29,00,54,12.80
2010,06,29,00,55,12.80
2010,06,29,00,56,12.80
2010,06,29,00,57,12.80
2010,06,29,00,58,12.80
2010,06,29,00,59,12.80
2010,06,29,01,00,12.80
2010,06,29,01,01,12.80
2010,06,29,01,02,12.80
2010,06,29,01,03,12.80
2010,06,29,01,04,12.80
2010,06,29,01,05,12.80
2010,06,29,01,06,12.80
2010,06,29,01,07,12.80
2010,06,29,01,08,12.80
2010,06,29,01,09,12.80
2010,06,29,01,10,12.80
2010,06,29,01,11,12.80
2010,06,29,01,12,12.80
2010,06,29,01,13,12.80
2010,06,29,01,14,12.80
2010,06,29,01,15,12.70
2010,06,29,01,16,12.70
2010,06,29,01,17,12.70
2010,06,29,01,18,12.70
2010,06,29,01,19,12.70
2010,06,29,01,20,12.70
2010,06,29,01,21,12.70
2010,06,29,01,22,12.70
2010,06,29,01,23,12.60
2010,06,29,01,24,12.60
2010,06,29,01,25,12.60
2010,06,29,01,26,12.60
2010,06,29,01,27,12.60
2010,06,29,01,28,12.60
2010,06,29,01,29,12.50
2010,06,29,01,30,12.50
2010,06,29,01,31,12.50
2010,06,29,01,32,12.50
2010,06,29,01,33,12.50
2010,06,29,01,34,12.50
2010,06,29,01,35,12.50
2010,06,29,01,36,12.40
2010,06,29,01,37,12.40
2010,06,29,01,38,12.40
2010,06,29,01,39,12.40
2010,06,29,01,40,12.40
2010,06,29,01,41,12.30
2010,06,29,01,42,12.30
2010,06,29,01,43,12.30
2010,06,29,01,44,12.30
2010,06,29,01,45,12.30
2010,06,29,01,46,12.30
2010,06,29,01,47,12.30
2010,06,29,01,48,12.30
2010,06,29,01,49,12.30
2010,06,29,01,50,12.30
2010,06,29,01,51,12.30
2010,06,29,01,52,12.30
2010,06,29,01,53,12.30
2010,06,29,01,54,12.30
2010,06,29,01,55,12.20
2010,06,29,01,56,12.20
2010,06,29,01,57,12.20
2010,06,29,01,58,12.20
2010,06,29,01,59,12.20
2010,06,29,02,00,12.20
2010,06,29,02,01,12.20
2010,06,29,02,02,12.10
2010,06,29,02,03,12.10
2010,06,29,02,04,12.10
2010,06,29,02,05,12.10
2010,06,29,02,06,12.10
2010,06,29,02,07,12.00
2010,06,29,02,08,12.00
2010,06,29,02,09,12.00
2010,06,29,02,10,12.00
2010,06,29,02,11,11.90
2010,06,29,02,12,11.90
2010,06,29,02,13,11.90
2010,06,29,02,14,11.90
2010,06,29,02,15,11.80
2010,06,29,02,16,11.80
2010,06,29,02,17,11.80
2010,06,29,02,18,11.80
2010,06,29,02,19,11.80
2010,06,29,02,20,11.80
2010,06,29,02,21,11.80
2010,06,29,02,22,11.80
2010,06,29,02,23,11.70
2010,06,29,02,24,11.70
2010,06,29,02,25,11.70
2010,06,29,02,26,11.70
2010,06,29,02,27,11.60
2010,06,29,02,28,11.60
2010,06,29,02,29,11.60
2010,06,29,02,30,11.60
2010,06,29,02,31,11.60
2010,06,29,02,32,11.60
2010,06,29,02,33,11.60
2010,06,29,02,34,11.60
2010,06,29,02,35,11.60
2010,06,29,02,36,11.60
2010,06,29,02,37,11.60
2010,06,29,02,38,11.60
2010,06,29,02,39,11.60
2010,06,29,02,40,11.60
2010,06,29,02,41,11.60
2010,06,29,02,42,11.60
2010,06,29,02,43,11.60
2010,06,29,02,44,11.60
2010,06,29,02,45,11.60
2010,06,29,02,46,11.60
2010,06,29,02,47,11.60
2010,06,29,02,48,11.60
2010,06,29,02,49,11.60
2010,06,29,02,50,11.60
2010,06,29,02,51,11.60
2010,06,29,02,52,11.60
2010,06,29,02,53,11.60
2010,06,29,02,54,11.60
2010,06,29,02,55,11.60
2010,06,29,02,56,11.60
2010,06,29,02,57,11.60
2010,06,29,02,58,11.50
2010,06,29,02,59,11.40
2010,06,29,03,00,11.40
2010,06,29,03,01,11.40
2010,06,29,03,02,11.40
2010,06,29,03,03,11.40
2010,06,29,03,04,11.40
2010,06,29,03,05,11.30
2010,06,29,03,06,11.30
2010,06,29,03,07,11.30
2010,06,29,03,08,11.30
2010,06,29,03,09,11.30
2010,06,29,03,10,11.30
2010,06,29,03,11,11.30
2010,06,29,03,12,11.30
2010,06,29,03,13,11.40
2010,06,29,03,14,11.40
2010,06,29,03,15,11.40
2010,06,29,03,16,11.40
2010,06,29,03,17,11.40
2010,06,29,03,18,11.40
2010,06,29,03,19,11.40
2010,06,29,03,20,11.40
2010,06,29,03,21,11.40
2010,06,29,03,22,11.40
2010,06,29,03,23,11.40
2010,06,29,03,24,11.40
2010,06,29,03,25,11.40
2010,06,29,03,26,11.40
2010,06,29,03,27,11.40
2010,06,29,03,28,11.40
2010,06,29,03,29,11.40
2010,06,29,03,30,11.40
2010,06,29,03,31,11.40
2010,06,29,03,32,11.40
2010,06,29,03,33,11.40
2010,06,29,03,34,11.40
2010,06,29,03,35,11.40
2010,06,29,03,36,11.40
2010,06,29,03,37,11.40
2010,06,29,03,38,11.40
2010,06,29,03,39,11.30
2010,06,29,03,40,11.30
2010,06,29,03,41,11.30
2010,06,29,03,42,11.30
2010,06,29,03,43,11.20
2010,06,29,03,44,11.20
2010,06,29,03,45,11.20
2010,06,29,03,46,11.20
2010,06,29,03,47,11.10
2010,06,29,03,48,11.10
2010,06,29,03,49,11.10
2010,06,29,03,50,11.10
2010,06,29,03,51,11.10
2010,06,29,03,52,11.10
2010,06,29,03,53,11.10
2010,06,29,03,54,11.10
2010,06,29,03,55,11.10
2010,06,29,03,56,11.00
2010,06,29,03,57,10.90
2010,06,29,03,58,10.90
2010,06,29,03,59,10.90
2010,06,29,04,00,10.90
2010,06,29,04,01,10.90
2010,06,29,04,02,10.90
2010,06,29,04,03,10.90
2010,06,29,04,04,10.90
2010,06,29,04,05,10.80
2010,06,29,04,06,10.70
2010,06,29,04,07,10.60
2010,06,29,04,08,10.50
2010,06,29,04,09,10.40
2010,06,29,04,10,10.30
2010,06,29,04,11,10.10
2010,06,29,04,12,10.10
2010,06,29,04,13,10.00
2010,06,29,04,14,9.90
2010,06,29,04,15,9.90
2010,06,29,04,16,9.80
2010,06,29,04,17,9.80
2010,06,29,04,18,9.70
2010,06,29,04,19,9.70
2010,06,29,04,20,9.70
2010,06,29,04,21,9.70
2010,06,29,04,22,9.70
2010,06,29,04,23,9.70
2010,06,29,04,24,9.70
2010,06,29,04,25,9.70
2010,06,29,04,26,9.70
2010,06,29,04,27,9.80
2010,06,29,04,28,9.90
2010,06,29,04,29,9.90
2010,06,29,04,30,9.90
2010,06,29,04,31,9.80
2010,06,29,04,32,9.80
2010,06,29,04,33,9.80
2010,06,29,04,34,9.80
2010,06,29,04,35,9.90
2010,06,29,04,36,9.90
2010,06,29,04,37,9.90
2010,06,29,04,38,9.90
2010,06,29,04,39,10.00
2010,06,29,04,40,10.10
2010,06,29,04,41,10.10
2010,06,29,04,42,10.10
2010,06,29,04,43,10.10
2010,06,29,04,44,10.10
2010,06,29,04,45,10.10
2010,06,29,04,46,10.10
2010,06,29,04,47,10.00
2010,06,29,04,48,9.90
2010,06,29,04,49,9.90
2010,06,29,04,50,9.90
2010,06,29,04,51,9.90
2010,06,29,04,52,9.90
2010,06,29,04,53,9.90
2010,06,29,04,54,9.90
2010,06,29,04,55,9.90
2010,06,29,04,56,10.10
2010,06,29,04,57,10.10
2010,06,29,04,58,10.10
2010,06,29,04,59,10.20
2010,06,29,05,00,10.20
2010,06,29,05,01,10.20
2010,06,29,05,02,10.20
2010,06,29,05,03,10.20
2010,06,29,05,04,10.20
2010,06,29,05,05,10.10
2010,06,29,05,06,10.10
2010,06,29,05,07,10.10
2010,06,29,05,08,10.10
2010,06,29,05,09,10.00
2010,06,29,05,10,9.90
2010,06,29,05,11,9.90
2010,06,29,05,12,9.90
2010,06,29,05,13,9.90
2010,06,29,05,14,9.90
2010,06,29,05,15,9.90
2010,06,29,05,16,9.90
2010,06,29,05,17,9.90
2010,06,29,05,18,9.90
2010,06,29,05,19,9.90
2010,06,29,05,20,9.80
2010,06,29,05,21,9.80
2010,06,29,05,22,9.80
2010,06,29,05,23,9.70
2010,06,29,05,24,9.70
2010,06,29,05,25,9.70
2010,06,29,05,26,9.70
2010,06,29,05,27,9.70
2010,06,29,05,28,9.70
2010,06,29,05,29,9.70
2010,06,29,05,30,9.70
2010,06,29,05,31,9.70
2010,06,29,05,32,9.70
2010,06,29,05,33,9.70
2010,06,29,05,34,9.70
2010,06,29,05,35,9.70
2010,06,29,05,36,9.70
2010,06,29,05,37,9.70
2010,06,29,05,38,9.70
2010,06,29,05,39,9.70
2010,06,29,05,40,9.80
2010,06,29,05,41,9.80
2010,06,29,05,42,9.80
2010,06,29,05,43,9.80
2010,06,29,05,44,9.80
2010,06,29,05,45,9.90
2010,06,29,05,46,9.90
2010,06,29,05,47,9.90
2010,06,29,05,48,9.90
2010,06,29,05,49,9.90
2010,06,29,05,50,9.90
2010,06,29,05,51,9.90
2010,06,29,05,52,9.90
2010,06,29,05,53,9.90
2010,06,29,05,54,9.90
2010,06,29,05,55,9.90
2010,06,29,05,56,9.90
2010,06,29,05,57,9.90
2010,06,29,05,58,9.90
2010,06,29,05,59,9.90
2010,06,29,06,00,9.90
2010,06,29,06,01,9.90
2010,06,29,06,02,9.90
2010,06,29,06,03,9.90
2010,06,29,06,04,9.90
2010,06,29,06,05,9.90
2010,06,29,06,06,9.90
2010,06,29,06,07,9.90
2010,06,29,06,08,9.90
2010,06,29,06,09,9.90
2010,06,29,06,10,9.90
2010,06,29,06,11,9.80
2010,06,29,06,12,9.80
2010,06,29,06,13,9.80
2010,06,29,06,14,9.80
2010,06,29,06,15,9.80
2010,06,29,06,16,9.80
2010,06,29,06,17,9.70
2010,06,29,06,18,9.70
2010,06,29,06,19,9.70
2010,06,29,06,20,9.70
2010,06,29,06,21,9.70
2010,06,29,06,22,9.70
2010,06,29,06,23,9.70
2010,06,29,06,24,9.70
2010,06,29,06,25,9.70
2010,06,29,06,26,9.70
2010,06,29,06,27,9.70
2010,06,29,06,28,9.70
2010,06,29,06,29,9.80
2010,06,29,06,30,9.80
2010,06,29,06,31,9.80
2010,06,29,06,32,9.90
2010,06,29,06,33,9.90
2010,06,29,06,34,9.90
2010,06,29,06,35,9.90
2010,06,29,06,36,10.00
2010,06,29,06,37,10.10
2010,06,29,06,38,10.10
2010,06,29,06,39,10.10
2010,06,29,06,40,10.20
2010,06,29,06,41,10.20
2010,06,29,06,42,10.20
2010,06,29,06,43,10.30
2010,06,29,06,44,10.30
2010,06,29,06,45,10.40
2010,06,29,06,46,10.40
2010,06,29,06,47,10.40
2010,06,29,06,48,10.40
2010,06,29,06,49,10.50
2010,06,29,06,50,10.60
2010,06,29,06,51,10.60
2010,06,29,06,52,10.60
2010,06,29,06,53,10.70
2010,06,29,06,54,10.70
2010,06,29,06,55,10.80
2010,06,29,06,56,10.80
2010,06,29,06,57,10.90
2010,06,29,06,58,10.90
2010,06,29,06,59,10.90
2010,06,29,07,00,10.90
2010,06,29,07,01,10.90
2010,06,29,07,02,10.90
2010,06,29,07,03,10.90
2010,06,29,07,04,10.90
2010,06,29,07,05,10.90
2010,06,29,07,06,10.90
2010,06,29,07,07,10.90
2010,06,29,07,08,10.90
2010,06,29,07,09,10.90
2010,06,29,07,10,10.90
2010,06,29,07,11,10.90
2010,06,29,07,12,10.90
2010,06,29,07,13,10.90
2010,06,29,07,14,10.80
2010,06,29,07,15,10.80
2010,06,29,07,16,10.80
2010,06,29,07,17,10.80
2010,06,29,07,18,10.80
2010,06,29,07,19,10.80
2010,06,29,07,20,10.70
2010,06,29,07,21,10.70
2010,06,29,07,22,10.70
2010,06,29,07,23,10.70
2010,06,29,07,24,10.70
2010,06,29,07,25,10.70
2010,06,29,07,26,10.70
2010,06,29,07,27,10.70
2010,06,29,07,28,10.70
2010,06,29,07,29,10.70
2010,06,29,07,30,10.70
2010,06,29,07,31,10.70
2010,06,29,07,32,10.70
2010,06,29,07,33,10.70
2010,06,29,07,34,10.80
2010,06,29,07,35,10.80
2010,06,29,07,36,10.80
2010,06,29,07,37,10.90
2010,06,29,07,38,10.90
2010,06,29,07,39,10.90
2010,06,29,07,40,11.00
2010,06,29,07,41,11.10
2010,06,29,07,42,11.10
2010,06,29,07,43,11.20
2010,06,29,07,44,11.20
2010,06,29,07,45,11.30
2010,06,29,07,46,11.30
2010,06,29,07,47,11.40
2010,06,29,07,48,11.40
2010,06,29,07,49,11.50
2010,06,29,07,50,11.60
2010,06,29,07,51,11.60
2010,06,29,07,52,11.60
2010,06,29,07,53,11.70
2010,06,29,07,54,11.80
2010,06,29,07,55,11.80
2010,06,29,07,56,11.80
2010,06,29,07,57,11.90
2010,06,29,07,58,11.90
2010,06,29,07,59,12.00
2010,06,29,08,00,12.00
2010,06,29,08,01,12.10
2010,06,29,08,02,12.10
2010,06,29,08,03,12.10
2010,06,29,08,04,12.10
2010,06,29,08,05,12.10
2010,06,29,08,06,12.20
2010,06,29,08,07,12.20
2010,06,29,08,08,12.20
2010,06,29,08,09,12.20
2010,06,29,08,10,12.20
2010,06,29,08,11,12.20
2010,06,29,08,12,12.20
2010,06,29,08,13,12.20
2010,06,29,08,14,12.30
2010,06,29,08,15,12.30
2010,06,29,08,16,12.30
2010,06,29,08,17,12.30
2010,06,29,08,18,12.30
2010,06,29,08,19,12.30
2010,06,29,08,20,12.30
2010,06,29,08,21,12.40
2010,06,29,08,22,12.50
2010,06,29,08,23,12.50
2010,06,29,08,24,12.60
2010,06,29,08,25,12.70
2010,06,29,08,26,12.70
2010,06,29,08,27,12.70
2010,06,29,08,28,12.80
2010,06,29,08,29,12.80
2010,06,29,08,30,12.80
2010,06,29,08,31,12.80
2010,06,29,08,32,12.80
2010,06,29,08,33,12.90
2010,06,29,08,34,13.00
2010,06,29,08,35,13.00
2010,06,29,08,36,13.10
2010,06,29,08,37,13.10
2010,06,29,08,38,13.10
2010,06,29,08,39,13.20
2010,06,29,08,40,13.20
2010,06,29,08,41,13.30
2010,06,29,08,42,13.30
2010,06,29,08,43,13.40
2010,06,29,08,44,13.50
2010,06,29,08,45,13.50
2010,06,29,08,46,13.60
2010,06,29,08,47,13.70
2010,06,29,08,48,13.70
2010,06,29,08,49,13.70
2010,06,29,08,50,13.70
2010,06,29,08,51,13.70
2010,06,29,08,52,13.70
2010,06,29,08,53,13.70
2010,06,29,08,54,13.70
2010,06,29,08,55,13.80
2010,06,29,08,56,13.80
2010,06,29,08,57,13.90
2010,06,29,08,58,13.90
2010,06,29,08,59,14.00
2010,06,29,09,00,14.00
2010,06,29,09,01,14.10
2010,06,29,09,02,14.10
2010,06,29,09,03,14.10
2010,06,29,09,04,14.10
2010,06,29,09,05,14.10
2010,06,29,09,06,14.20
2010,06,29,09,07,14.20
2010,06,29,09,08,14.20
2010,06,29,09,09,14.20
2010,06,29,09,10,14.20
2010,06,29,09,11,14.20
2010,06,29,09,12,14.20
2010,06,29,09,13,14.20
2010,06,29,09,14,14.20
2010,06,29,09,15,14.20
2010,06,29,09,16,14.20
2010,06,29,09,17,14.10
2010,06,29,09,18,14.10
2010,06,29,09,19,14.10
2010,06,29,09,20,14.20
2010,06,29,09,21,14.20
2010,06,29,09,22,14.20
2010,06,29,09,23,14.30
2010,06,29,09,24,14.40
2010,06,29,09,25,14.50
2010,06,29,09,26,14.50
2010,06,29,09,27,14.40
2010,06,29,09,28,14.50
2010,06,29,09,29,14.50
2010,06,29,09,30,14.60
2010,06,29,09,31,14.70
2010,06,29,09,32,14.70
2010,06,29,09,33,14.70
2010,06,29,09,34,14.70
2010,06,29,09,35,14.70
2010,06,29,09,36,14.80
2010,06,29,09,37,14.80
2010,06,29,09,38,14.80
2010,06,29,09,39,14.80
2010,06,29,09,40,14.80
2010,06,29,09,41,14.90
2010,06,29,09,42,14.90
2010,06,29,09,43,15.00
2010,06,29,09,44,15.00
2010,06,29,09,45,15.00
2010,06,29,09,46,14.90
2010,06,29,09,47,14.70
2010,06,29,09,48,14.60
2010,06,29,09,49,14.60
2010,06,29,09,50,14.60
2010,06,29,09,51,14.70
2010,06,29,09,52,14.80
2010,06,29,09,53,14.80
2010,06,29,09,54,14.80
2010,06,29,09,55,14.80
2010,06,29,09,56,14.80
2010,06,29,09,57,14.80
2010,06,29,09,58,14.80
2010,06,29,09,59,14.80
2010,06,29,10,00,14.80
2010,06,29,10,01,14.80
2010,06,29,10,02,14.80
2010,06,29,10,03,14.90
2010,06,29,10,04,15.00
2010,06,29,10,05,15.00
2010,06,29,10,06,15.10
2010,06,29,10,07,15.20
2010,06,29,10,08,15.30
2010,06,29,10,09,15.30
2010,06,29,10,10,15.30
2010,06,29,10,11,15.30
2010,06,29,10,12,15.20
2010,06,29,10,13,15.20
2010,06,29,10,14,15.10
2010,06,29,10,15,15.10
2010,06,29,10,16,15.00
2010,06,29,10,17,15.10
2010,06,29,10,18,15.10
2010,06,29,10,19,15.20
2010,06,29,10,20,15.30
2010,06,29,10,21,15.20
2010,06,29,10,22,15.20
2010,06,29,10,23,15.20
2010,06,29,10,24,15.20
2010,06,29,10,25,15.30
2010,06,29,10,26,15.30
2010,06,29,10,27,15.30
2010,06,29,10,28,15.40
2010,06,29,10,29,15.40
2010,06,29,10,30,15.30
2010,06,29,10,31,15.30
2010,06,29,10,32,15.30
2010,06,29,10,33,15.30
2010,06,29,10,34,15.40
2010,06,29,10,35,15.50
2010,06,29,10,36,15.50
2010,06,29,10,37,15.50
2010,06,29,10,38,15.40
2010,06,29,10,39,15.40
2010,06,29,10,40,15.30
2010,06,29,10,41,15.30
2010,06,29,10,42,15.30
2010,06,29,10,43,15.30
2010,06,29,10,44,15.30
2010,06,29,10,45,15.30
2010,06,29,10,46,15.50
2010,06,29,10,47,15.50
2010,06,29,10,48,15.60
2010,06,29,10,49,15.60
2010,06,29,10,50,15.60
2010,06,29,10,51,15.50
2010,06,29,10,52,15.50
2010,06,29,10,53,15.50
2010,06,29,10,54,15.50
2010,06,29,10,55,15.50
2010,06,29,10,56,15.60
2010,06,29,10,57,15.60
2010,06,29,10,58,15.60
2010,06,29,10,59,15.70
2010,06,29,11,00,15.80
2010,06,29,11,01,15.80
2010,06,29,11,02,15.80
2010,06,29,11,03,15.80
2010,06,29,11,04,15.80
2010,06,29,11,05,15.80
2010,06,29,11,06,15.80
2010,06,29,11,07,15.80
2010,06,29,11,08,15.80
2010,06,29,11,09,15.70
2010,06,29,11,10,15.80
2010,06,29,11,11,15.80
2010,06,29,11,12,15.80
2010,06,29,11,13,15.90
2010,06,29,11,14,16.00
2010,06,29,11,15,16.10
2010,06,29,11,16,16.10
2010,06,29,11,17,16.10
2010,06,29,11,18,16.10
2010,06,29,11,19,16.20
2010,06,29,11,20,16.30
2010,06,29,11,21,16.40
2010,06,29,11,22,16.40
2010,06,29,11,23,16.30
2010,06,29,11,24,16.30
2010,06,29,11,25,16.40
2010,06,29,11,26,16.50
2010,06,29,11,27,16.60
2010,06,29,11,28,16.70
2010,06,29,11,29,16.70
2010,06,29,11,30,16.70
2010,06,29,11,31,16.80
2010,06,29,11,32,16.90
2010,06,29,11,33,16.90
2010,06,29,11,34,16.90
2010,06,29,11,35,16.80
2010,06,29,11,36,16.90
2010,06,29,11,37,16.90
2010,06,29,11,38,17.00
2010,06,29,11,39,17.10
2010,06,29,11,40,17.10
2010,06,29,11,41,17.00
2010,06,29,11,42,17.00
2010,06,29,11,43,16.90
2010,06,29,11,44,16.90
2010,06,29,11,45,16.90
2010,06,29,11,46,16.80
2010,06,29,11,47,16.70
2010,06,29,11,48,16.70
2010,06,29,11,49,16.70
2010,06,29,11,50,16.80
2010,06,29,11,51,16.90
2010,06,29,11,52,16.90
2010,06,29,11,53,16.90
2010,06,29,11,54,17.00
2010,06,29,11,55,17.00
2010,06,29,11,56,17.00
2010,06,29,11,57,17.00
2010,06,29,11,58,16.90
2010,06,29,11,59,16.80
2010,06,29,12,00,16.80
2010,06,29,12,01,16.70
2010,06,29,12,02,16.70
2010,06,29,12,03,16.70
2010,06,29,12,04,16.70
2010,06,29,12,05,16.70
2010,06,29,12,06,16.70
2010,06,29,12,07,16.80
2010,06,29,12,08,16.90
2010,06,29,12,09,17.00
2010,06,29,12,10,17.00
2010,06,29,12,11,17.00
2010,06,29,12,12,17.00
2010,06,29,12,13,17.00
2010,06,29,12,14,17.10
2010,06,29,12,15,17.20
2010,06,29,12,16,17.30
2010,06,29,12,17,17.40
2010,06,29,12,18,17.50
2010,06,29,12,19,17.70
2010,06,29,12,20,17.50
2010,06,29,12,21,17.20
2010,06,29,12,22,17.10
2010,06,29,12,23,17.00
2010,06,29,12,24,16.80
2010,06,29,12,25,16.60
2010,06,29,12,26,16.40
2010,06,29,12,27,16.40
2010,06,29,12,28,16.10
2010,06,29,12,29,15.90
2010,06,29,12,30,15.50
2010,06,29,12,31,15.30
2010,06,29,12,32,15.10
2010,06,29,12,33,15.00
2010,06,29,12,34,14.80
2010,06,29,12,35,14.80
2010,06,29,12,36,14.80
2010,06,29,12,37,14.80
2010,06,29,12,38,14.80
2010,06,29,12,39,14.90
2010,06,29,12,40,14.90
2010,06,29,12,41,14.70
2010,06,29,12,42,14.70
2010,06,29,12,43,14.50
2010,06,29,12,44,14.50
2010,06,29,12,45,14.50
2010,06,29,12,46,14.50
2010,06,29,12,47,14.50
2010,06,29,12,48,14.60
2010,06,29,12,49,14.60
2010,06,29,12,50,14.50
2010,06,29,12,51,14.60
2010,06,29,12,52,14.60
2010,06,29,12,53,14.70
2010,06,29,12,54,14.80
2010,06,29,12,55,15.00
2010,06,29,12,56,15.10
2010,06,29,12,57,15.30
2010,06,29,12,58,15.40
2010,06,29,12,59,15.60
2010,06,29,13,00,15.70
2010,06,29,13,01,15.90
2010,06,29,13,02,16.10
2010,06,29,13,03,16.30
2010,06,29,13,04,16.40
2010,06,29,13,05,16.40
2010,06,29,13,06,16.50
2010,06,29,13,07,16.70
2010,06,29,13,08,16.90
2010,06,29,13,09,17.00
2010,06,29,13,10,17.10
2010,06,29,13,11,17.30
2010,06,29,13,12,17.30
2010,06,29,13,13,17.40
2010,06,29,13,14,17.60
2010,06,29,13,15,17.70
2010,06,29,13,16,17.80
2010,06,29,13,17,17.80
2010,06,29,13,18,17.80
2010,06,29,13,19,17.90
2010,06,29,13,20,17.80
2010,06,29,13,21,17.70
2010,06,29,13,22,17.60
2010,06,29,13,23,17.50
2010,06,29,13,24,17.50
2010,06,29,13,25,17.40
2010,06,29,13,26,17.40
2010,06,29,13,27,17.30
2010,06,29,13,28,17.40
2010,06,29,13,29,17.50
2010,06,29,13,30,17.60
2010,06,29,13,31,17.70
2010,06,29,13,32,17.70
2010,06,29,13,33,17.80
2010,06,29,13,34,17.80
2010,06,29,13,35,17.70
2010,06,29,13,36,17.70
2010,06,29,13,37,17.60
2010,06,29,13,38,17.70
2010,06,29,13,39,17.60
2010,06,29,13,40,17.60
2010,06,29,13,41,17.50
2010,06,29,13,42,17.30
2010,06,29,13,43,17.20
2010,06,29,13,44,17.20
2010,06,29,13,45,17.20
2010,06,29,13,46,17.20
2010,06,29,13,47,17.30
2010,06,29,13,48,17.30
2010,06,29,13,49,17.30
2010,06,29,13,50,17.20
2010,06,29,13,51,17.10
2010,06,29,13,52,17.10
2010,06,29,13,53,17.00
2010,06,29,13,54,17.00
2010,06,29,13,55,17.10
2010,06,29,13,56,17.20
2010,06,29,13,57,17.20
2010,06,29,13,58,17.20
2010,06,29,13,59,17.10
2010,06,29,14,00,17.10
2010,06,29,14,01,17.20
2010,06,29,14,02,17.20
2010,06,29,14,03,17.30
2010,06,29,14,04,17.30
2010,06,29,14,05,17.30
2010,06,29,14,06,17.30
2010,06,29,14,07,17.30
2010,06,29,14,08,17.30
2010,06,29,14,09,17.30
2010,06,29,14,10,17.30
2010,06,29,14,11,17.40
2010,06,29,14,12,17.50
2010,06,29,14,13,17.70
2010,06,29,14,14,17.70
2010,06,29,14,15,17.70
2010,06,29,14,16,17.70
2010,06,29,14,17,17.80
2010,06,29,14,18,17.90
2010,06,29,14,19,18.00
2010,06,29,14,20,18.10
2010,06,29,14,21,18.00
2010,06,29,14,22,17.90
2010,06,29,14,23,17.90
2010,06,29,14,24,17.90
2010,06,29,14,25,18.10
2010,06,29,14,26,18.20
2010,06,29,14,27,18.20
2010,06,29,14,28,18.20
2010,06,29,14,29,18.10
2010,06,29,14,30,17.90
2010,06,29,14,31,17.60
2010,06,29,14,32,17.40
2010,06,29,14,33,17.30
2010,06,29,14,34,17.30
2010,06,29,14,35,17.30
2010,06,29,14,36,17.30
2010,06,29,14,37,17.30
2010,06,29,14,38,17.20
2010,06,29,14,39,17.00
2010,06,29,14,40,16.90
2010,06,29,14,41,16.70
2010,06,29,14,42,16.70
2010,06,29,14,43,16.80
2010,06,29,14,44,16.90
2010,06,29,14,45,16.90
2010,06,29,14,46,16.70
2010,06,29,14,47,16.50
2010,06,29,14,48,16.20
2010,06,29,14,49,16.00
2010,06,29,14,50,15.90
2010,06,29,14,51,15.90
2010,06,29,14,52,15.80
2010,06,29,14,53,15.70
2010,06,29,14,54,15.60
2010,06,29,14,55,15.50
2010,06,29,14,56,15.50
2010,06,29,14,57,15.40
2010,06,29,14,58,15.40
2010,06,29,14,59,15.30
2010,06,29,15,00,15.30
2010,06,29,15,01,15.30
2010,06,29,15,02,15.30
2010,06,29,15,03,15.30
2010,06,29,15,04,15.30
2010,06,29,15,05,15.30
2010,06,29,15,06,15.30
2010,06,29,15,07,15.30
2010,06,29,15,08,15.20
2010,06,29,15,09,15.20
2010,06,29,15,10,15.20
2010,06,29,15,11,15.20
2010,06,29,15,12,15.30
2010,06,29,15,13,15.30
2010,06,29,15,14,15.40
2010,06,29,15,15,15.40
2010,06,29,15,16,15.30
2010,06,29,15,17,15.20
2010,06,29,15,18,15.20
2010,06,29,15,19,15.10
2010,06,29,15,20,15.00
2010,06,29,15,21,14.90
2010,06,29,15,22,14.90
2010,06,29,15,23,14.80
2010,06,29,15,24,14.80
2010,06,29,15,25,14.80
2010,06,29,15,26,14.70
2010,06,29,15,27,14.80
2010,06,29,15,28,14.80
2010,06,29,15,29,14.80
2010,06,29,15,30,14.80
2010,06,29,15,31,14.80
2010,06,29,15,32,14.80
2010,06,29,15,33,14.80
2010,06,29,15,34,14.70
2010,06,29,15,35,14.70
2010,06,29,15,36,14.80
2010,06,29,15,37,14.80
2010,06,29,15,38,14.80
2010,06,29,15,39,14.80
2010,06,29,15,40,14.80
2010,06,29,15,41,14.80
2010,06,29,15,42,14.80
2010,06,29,15,43,14.70
2010,06,29,15,44,14.60
2010,06,29,15,45,14.50
2010,06,29,15,46,14.30
2010,06,29,15,47,14.10
2010,06,29,15,48,14.00
2010,06,29,15,49,13.80
2010,06,29,15,50,13.70
2010,06,29,15,51,13.60
2010,06,29,15,52,13.60
2010,06,29,15,53,13.50
2010,06,29,15,54,13.40
2010,06,29,15,55,13.40
2010,06,29,15,56,13.40
2010,06,29,15,57,13.40
2010,06,29,15,58,13.50
2010,06,29,15,59,13.50
2010,06,29,16,00,13.40
2010,06,29,16,01,13.40
2010,06,29,16,02,13.50
2010,06,29,16,03,13.50
2010,06,29,16,04,13.50
2010,06,29,16,05,13.50
2010,06,29,16,06,13.50
2010,06,29,16,07,13.50
2010,06,29,16,08,13.50
2010,06,29,16,09,13.50
2010,06,29,16,10,13.50
2010,06,29,16,11,13.40
2010,06,29,16,12,13.40
2010,06,29,16,13,13.30
2010,06,29,16,14,13.30
2010,06,29,16,15,13.30
2010,06,29,16,16,13.30
2010,06,29,16,17,13.20
2010,06,29,16,18,13.10
2010,06,29,16,19,13.10
2010,06,29,16,20,13.00
2010,06,29,16,21,13.00
2010,06,29,16,22,13.00
2010,06,29,16,23,13.00
2010,06,29,16,24,13.10
2010,06,29,16,25,13.10
2010,06,29,16,26,13.10
2010,06,29,16,27,13.20
2010,06,29,16,28,13.20
2010,06,29,16,29,13.20
2010,06,29,16,30,13.30
2010,06,29,16,31,13.30
2010,06,29,16,32,13.40
2010,06,29,16,33,13.40
2010,06,29,16,34,13.30
2010,06,29,16,35,13.40
2010,06,29,16,36,13.40
2010,06,29,16,37,13.40
2010,06,29,16,38,13.40
2010,06,29,16,39,13.40
2010,06,29,16,40,13.50
2010,06,29,16,41,13.60
2010,06,29,16,42,13.70
2010,06,29,16,43,13.80
2010,06,29,16,44,13.90
2010,06,29,16,45,14.00
2010,06,29,16,46,14.00
2010,06,29,16,47,14.10
2010,06,29,16,48,14.20
2010,06,29,16,49,14.20
2010,06,29,16,50,14.30
2010,06,29,16,51,14.40
2010,06,29,16,52,14.50
2010,06,29,16,53,14.60
2010,06,29,16,54,14.60
2010,06,29,16,55,14.60
2010,06,29,16,56,14.50
2010,06,29,16,57,14.40
2010,06,29,16,58,14.30
2010,06,29,16,59,14.20
2010,06,29,17,00,14.10
2010,06,29,17,01,13.90
2010,06,29,17,02,13.80
2010,06,29,17,03,13.70
2010,06,29,17,04,13.70
2010,06,29,17,05,13.70
2010,06,29,17,06,13.60
2010,06,29,17,07,13.60
2010,06,29,17,08,13.60
2010,06,29,17,09,13.60
2010,06,29,17,10,13.70
2010,06,29,17,11,13.70
2010,06,29,17,12,13.70
2010,06,29,17,13,13.80
2010,06,29,17,14,13.90
2010,06,29,17,15,13.90
2010,06,29,17,16,14.00
2010,06,29,17,17,14.10
2010,06,29,17,18,14.20
2010,06,29,17,19,14.20
2010,06,29,17,20,14.20
2010,06,29,17,21,14.20
2010,06,29,17,22,14.10
2010,06,29,17,23,14.00
2010,06,29,17,24,13.90
2010,06,29,17,25,13.90
2010,06,29,17,26,13.90
2010,06,29,17,27,13.90
2010,06,29,17,28,13.80
2010,06,29,17,29,13.70
2010,06,29,17,30,13.70
2010,06,29,17,31,13.60
2010,06,29,17,32,13.60
2010,06,29,17,33,13.60
2010,06,29,17,34,13.60
2010,06,29,17,35,13.60
2010,06,29,17,36,13.50
2010,06,29,17,37,13.60
2010,06,29,17,38,13.60
2010,06,29,17,39,13.60